This demonstration page uses our WeatherBlox Daily Observations layout. Learn more.

Left ArrowRight Arrow

Hourly Observations for September 1, 2020

Temp ( °F °C ) Dew Point ( °F °C ) Humidity (%) Winds ( mph kmh ) Pressure ( in mb ) Visibility ( mi km ) Precip ( " mm )
12:53 am 00:53 Mostly Clear 82 27.8 61 16.1 49 49 Calm 29.67 1005 10 16 0.00 0.00
1:53 am 01:53 Partly Cloudy 81 27.2 61 16.1 51 51 WSW 7 11 29.67 1005 10 16 0.00 0.00
2:53 am 02:53 Mostly Clear 83 28.3 60 15.6 46 46 S 12 19 29.66 1004 10 16 0.00 0.00
3:53 am 03:53 Clear 82 27.8 60 15.6 47 47 SSW 12 19 29.66 1004 10 16 0.00 0.00
4:53 am 04:53 Mostly Clear 81 27.2 61 16.1 51 51 SSW 12 19 29.65 1004 10 16 0.00 0.00
5:53 am 05:53 Mostly Clear 81 27.2 61 16.1 51 51 SSW 12 19 29.66 1004 10 16 0.00 0.00
6:53 am 06:53 Clear 80 26.7 61 16.1 52 52 SSW 8 13 29.67 1005 10 16 0.00 0.00
7:53 am 07:53 Sunny 80 26.7 62 16.7 54 54 SSW 5 7 29.68 1005 10 16 0.00 0.00
8:53 am 08:53 Sunny 84 28.9 60 15.6 44 44 WSW 12 19 29.68 1005 10 16 0.00 0.00
9:53 am 09:53 Sunny 86 30 58 14.4 39 39 WSW 17 28 29.68 1005 10 16 0.00 0.00
10:53 am 10:53 Sunny 86 30 58 14.4 39 39 WSW 15 24 29.71 1006 10 16 0.00 0.00
11:53 am 11:53 Sunny 89 31.7 58 14.4 35 35 SW 14 22 29.70 1006 10 16 0.00 0.00
12:53 pm 12:53 Sunny 92 33.3 58 14.4 32 32 SW 13 20 29.68 1005 10 16 0.00 0.00
1:53 pm 13:53 Sunny 95 35 58 14.4 29 29 W 15 24 29.65 1004 10 16 0.00 0.00
2:53 pm 14:53 Sunny 97 36.1 57 13.9 26 26 VRB 7 11 29.63 1003 10 16 0.00 0.00
3:53 pm 15:53 Partly Cloudy 98 36.7 55 12.8 24 24 VRB 5 7 29.61 1003 10 16 0.00 0.00
4:53 pm 16:53 Mostly Sunny 98 36.7 53 11.7 22 22 SW 9 15 29.59 1002 10 16 0.00 0.00
5:53 pm 17:53 Sunny 102 38.9 50 10 17 17 WNW 16 26 29.57 1001 10 16 0.00 0.00
6:53 pm 18:53 Sunny 100 37.8 45 7.2 15 15 W 18 30 29.57 1001 10 16 0.00 0.00
7:53 pm 19:53 Sunny 98 36.7 40 4.4 13 13 W 15 24 29.58 1002 10 16 0.00 0.00
8:51 pm 20:51 Mostly Cloudy 88 31 50 10 27 27 N 24 39 29.59 1002 7 11 0.00 0.00
8:53 pm 20:53 Mostly Cloudy 88 31.1 50 10 27 27 N 25 41 29.65 1004 8 13 0.00 0.00
9:53 pm 21:53 Mostly Cloudy 85 29.4 48 8.9 28 28 N 15 24 29.70 1006 10 16 0.00 0.00
10:53 pm 22:53 Mostly Clear 84 28.9 47 8.3 27 27 N 8 13 29.71 1006 10 16 0.00 0.00
11:53 pm 23:53 Clear 79 26.1 46 7.8 31 31 NNW 7 11 29.72 1007 10 16 0.00 0.00

Powered by AerisWeather